Georgetown, DE

1:22 PM EST on February 12, 2016 (GMT -0500)
Sussex County

Weather History for KGED - August, 2013

Change the Weather History Date:

Thursday, August 15, 2013

  Actual Average Record
Temperature  
Mean Temperature 67 °F 76 °F  
Max Temperature 76 °F 85 °F 95 °F (1985)
Min Temperature 57 °F 67 °F 45 °F (1964)
Degree Days  
Heating Degree Days 0 0  
Month to date heating degree days 0 0  
Since 1 June heating degree days 0 13  
Since 1 July heating degree days 0 0  
Cooling Degree Days 2 11  
Month to date cooling degree days 148 173  
Year to date cooling degree days 1055 873  
Since 1 June cooling degree days 898 779  
Growing Degree Days 17 (Base 50)    
Moisture  
Dew Point 53 °F    
Average Humidity 63    
Maximum Humidity 87    
Minimum Humidity 38    
Precipitation  
Precipitation 0.00 in 0.10 in 1.60 in (1973)
Month to date precipitation 5.95 1.54  
Year to date precipitation 39.67 27.28  
Sea Level Pressure  
Sea Level Pressure 30.14 in    
Wind  
Wind Speed 2 mph (NNE)    
Max Wind Speed 8 mph    
Max Gust Speed 10 mph    
Visibility 10 miles    
Events      
T = Trace of Precipitation, MM = Missing Value Source: NWS Daily Summary

Daily Weather History Graph

Daily Weather History Graph

Search for Another Location

Airport or City:

Trip Planner

Search our weather history database for the weather conditions in past years. The results will help you decide how hot, cold, wet, or windy it might be!

Date:

Astronomy

Aug. 15, 2013 Rise Set
Actual Time 6:15 AM EDT 7:55 PM EDT
Civil Twilight 5:47 AM EDT 8:23 PM EDT
Nautical Twilight 5:12 AM EDT 8:57 PM EDT
Astronomical Twilight 4:36 AM EDT 9:34 PM EDT
Moon 3:08 PM EDT (8/15) 12:23 AM EDT (8/15)
Length of Visible Light 14h 36m
Length of Day
13h 39m
Waxing Gibbous, 64% of the Moon is Illuminated
Aug 15
Waxing Gibbous
Aug 20
Full
Aug 28
Last Quarter
Sep 5
New
Sep 12
First Quarter

Hourly Weather History & Observations

Time (EDT) Temp. Dew Point Humidity Pressure Visibility Wind Dir Wind Speed Gust Speed Precip Events Conditions
12:54 AM 60.1 °F 55.0 °F 83% 30.10 in 10.0 mi Calm Calm - N/A   Clear
1:54 AM 59.0 °F 55.0 °F 87% 30.09 in 10.0 mi Calm Calm - N/A   Clear
2:54 AM 59.0 °F 54.0 °F 83% 30.09 in 10.0 mi Calm Calm - N/A   Clear
3:54 AM 60.1 °F 54.0 °F 80% 30.09 in 10.0 mi NW 3.5 mph - N/A   Clear
4:54 AM 60.1 °F 53.1 °F 78% 30.10 in 10.0 mi North 4.6 mph - N/A   Clear
5:54 AM 59.0 °F 54.0 °F 83% 30.12 in 10.0 mi Calm Calm - N/A   Clear
6:54 AM 59.0 °F 55.0 °F 87% 30.15 in 10.0 mi Calm Calm - N/A   Clear
7:54 AM 64.9 °F 55.0 °F 70% 30.16 in 10.0 mi Calm Calm - N/A   Clear
8:54 AM 70.0 °F 55.9 °F 61% 30.17 in 10.0 mi North 3.5 mph - N/A   Clear
9:54 AM 71.1 °F 52.0 °F 51% 30.17 in 10.0 mi ENE 5.8 mph - N/A   Clear
10:54 AM 73.0 °F 51.1 °F 46% 30.18 in 10.0 mi Variable 5.8 mph - N/A   Clear
11:54 AM 72.0 °F 51.1 °F 48% 30.18 in 10.0 mi NNE 4.6 mph - N/A   Clear
12:54 PM 73.0 °F 51.1 °F 46% 30.17 in 10.0 mi NE 4.6 mph - N/A   Clear
1:54 PM 73.0 °F 51.1 °F 46% 30.15 in 10.0 mi Calm Calm - N/A   Partly Cloudy
2:54 PM 75.0 °F 52.0 °F 44% 30.14 in 10.0 mi North 4.6 mph - N/A   Mostly Cloudy
4:54 PM 75.9 °F 50.0 °F 40% 30.12 in 10.0 mi Variable 3.5 mph - N/A   Unknown
5:54 PM 75.0 °F 48.9 °F 40% 30.13 in 10.0 mi Calm Calm - N/A   Clear
6:54 PM 73.9 °F 50.0 °F 43% 30.12 in 10.0 mi Calm Calm - N/A   Clear
7:54 PM 69.1 °F 55.9 °F 63% 30.14 in 10.0 mi Calm Calm - N/A   Clear
8:54 PM 64.9 °F 57.0 °F 75% 30.16 in 10.0 mi South 4.6 mph - N/A   Clear
9:54 PM 64.9 °F 55.0 °F 70% 30.17 in 10.0 mi Calm Calm - N/A   Clear
10:54 PM 62.1 °F 55.9 °F 80% 30.17 in 10.0 mi Calm Calm - N/A   Clear
11:54 PM 60.1 °F 55.9 °F 86% 30.17 in 10.0 mi Calm Calm - N/A   Clear